Location: Noyers
(47.2770°N, 1.4032°E)
Time: 02:13:23
(UTC+00:00)

CZ-2C R/B - Pass Details

Date: 15 May 2026
Orbit: 332 x 344 km, 97.7° (Epoch: 8 June)

Event Time Altitude Azimuth Distance (km) Brightness Sun altitude
Exits shadow 21:52:15 51° 257° (WSW) 432 2.3 -18.5°
Maximum altitude 21:52:16 51° 259° (WSW) 432 2.3 -18.5°
Drops below altitude 10° 21:54:54 10° 337° (NNW) 1,277 5.9 -18.8°
Sets 21:56:51 0° 343° (NNW) 2,122 7.4 -18.9°
